FW5284 Weather Reports


Display with metric or nautical units.
time (UTC)temp
F
wind
direction
speed
MPH
gust
MPH
rain 1hr
in
rain 24hr
in
rain mn
in
humidity
%
barometer
mb
20260831010031 72 276 0.0 2.0 0.00 0.00 0.00 72 1017.2
20260831005516 72 279 0.0 4.0 0.00 0.00 0.00 72 1017.2
20260831005017 72 277 0.0 4.0 0.00 0.00 0.00 71 1017.1
20260831004533 72 284 2.0 5.0 0.00 0.00 0.00 71 1016.9
20260831004018 72 290 1.0 7.0 0.00 0.00 0.00 71 1016.8
20260831003512 72 328 2.0 7.0 0.00 0.00 0.00 71 1016.9
20260831003023 72 317 3.0 7.0 0.00 0.00 0.00 71 1016.8
20260831002511 72 282 2.0 7.0 0.00 0.00 0.00 71 1016.8
20260831002013 72 304 2.0 5.0 0.00 0.00 0.00 71 1016.6
20260831001528 72 295 2.0 5.0 0.00 0.00 0.00 71 1016.5
20260831001013 72 295 2.0 6.0 0.00 0.00 0.00 71 1016.4
20260831000512 72 316 2.0 7.0 0.00 0.00 0.00 70 1016.3
20260831000029 72 281 3.0 7.0 0.00 0.00 0.00 70 1016.3
20260830235515 72 283 3.0 5.0 0.00 0.00 0.00 70 1016.3
20260830235003 72 293 2.0 5.0 0.00 0.00 0.00 70 1016.2
20260830234507 72 278 2.0 7.0 0.00 0.00 0.00 69 1016.1
20260830234005 72 287 2.0 7.0 0.00 0.00 0.00 69 1016.1
20260830233508 72 269 3.0 6.0 0.00 0.00 0.00 69 1016.0
20260830233016 72 295 2.0 4.0 0.00 0.00 0.00 69 1016.0
20260830232507 73 293 2.0 6.0 0.00 0.00 0.00 68 1016.1
20260830232010 73 293 2.0 6.0 0.00 0.00 0.00 68 1016.2
20260830231522 73 289 2.0 4.0 0.00 0.00 0.00 68 1016.2
20260830231012 73 286 2.0 4.0 0.00 0.00 0.00 68 1016.1
20260830230511 73 285 2.0 4.0 0.00 0.00 0.00 68 1016.0
20260830230004 73 285 2.0 4.0 0.00 0.00 0.00 67 1016.1
20260830225503 73 286 1.0 4.0 0.00 0.00 0.00 67 1016.1
20260830225005 73 285 2.0 4.0 0.00 0.00 0.00 67 1016.3
20260830224514 74 292 2.0 4.0 0.00 0.00 0.00 67 1016.3
20260830224004 74 287 3.0 4.0 0.00 0.00 0.00 67 1016.2
20260830223507 74 288 2.0 4.0 0.00 0.00 0.00 66 1016.4
20260830223010 74 277 2.0 3.0 0.00 0.00 0.00 66 1016.3
20260830222506 74 285 2.0 5.0 0.00 0.00 0.00 66 1016.4
20260830222006 74 289 2.0 5.0 0.00 0.00 0.00 65 1016.4
20260830221518 75 295 2.0 4.0 0.00 0.00 0.00 66 1016.6
20260830221010 75 286 1.0 4.0 0.00 0.00 0.00 66 1016.6
20260830220512 75 290 1.0 6.0 0.00 0.00 0.00 65 1016.4
20260830220026 75 294 2.0 6.0 0.00 0.00 0.00 65 1016.4
20260830215512 76 284 2.0 4.0 0.00 0.00 0.00 67 1016.5
20260830215014 76 288 1.0 3.0 0.00 0.00 0.00 67 1016.5
20260830214515 76 288 2.0 3.0 0.00 0.00 0.00 66 1016.5
20260830214003 76 267 1.0 3.0 0.00 0.00 0.00 67 1016.5
20260830213506 76 288 1.0 3.0 0.00 0.00 0.00 66 1016.5
20260830213007 76 287 1.0 3.0 0.00 0.00 0.00 66 1016.6
20260830212506 76 288 0.0 2.0 0.00 0.00 0.00 66 1016.6
20260830212006 76 288 0.0 3.0 0.00 0.00 0.00 65 1016.6
20260830211515 76 288 1.0 3.0 0.00 0.00 0.00 65 1016.7
20260830211006 76 289 2.0 3.0 0.00 0.00 0.00 64 1016.8
20260830210508 76 266 0.0 3.0 0.00 0.00 0.00 64 1016.7
20260830210022 77 257 1.0 3.0 0.00 0.00 0.00 62 1016.8
20260830205515 77 252 0.0 2.0 0.00 0.00 0.00 63 1016.8
20260830205010 77 257 1.0 3.0 0.00 0.00 0.00 61 1016.9
20260830204526 77 278 1.0 3.0 0.00 0.00 0.00 62 1016.8
20260830204012 77 266 0.0 3.0 0.00 0.00 0.00 61 1016.9
20260830203514 77 269 0.0 2.0 0.00 0.00 0.00 60 1016.9
20260830203019 77 273 0.0 5.0 0.00 0.00 0.00 59 1016.9
20260830202504 77 285 0.0 5.0 0.00 0.00 0.00 58 1017.0
20260830202006 77 273 2.0 5.0 0.00 0.00 0.00 59 1017.0
20260830201510 77 300 1.0 4.0 0.00 0.00 0.00 58 1017.1
20260830201012 77 277 1.0 4.0 0.00 0.00 0.00 59 1017.1
20260830200505 77 278 0.0 6.0 0.00 0.00 0.00 61 1017.1
20260830200017 77 288 1.0 6.0 0.00 0.00 0.00 60 1017.3
20260830195509 77 295 1.0 6.0 0.00 0.00 0.00 58 1017.3
20260830195012 77 297 1.0 4.0 0.00 0.00 0.00 60 1017.4
20260830194526 77 292 0.0 4.0 0.00 0.00 0.00 60 1017.4
20260830194012 76 290 0.0 3.0 0.00 0.00 0.00 62 1017.5
20260830193515 76 295 0.0 2.0 0.00 0.00 0.00 63 1017.6
20260830193028 76 295 0.0 2.0 0.00 0.00 0.00 62 1017.6
20260830192511 76 308 0.0 1.0 0.00 0.00 0.00 62 1017.6
20260830192013 76 316 0.0 1.0 0.00 0.00 0.00 65 1017.7
20260830191532 76 316 0.0 0.0 0.00 0.00 0.00 65 1017.7
20260830191006 77 316 0.0 0.0 0.00 0.00 0.00 65 1017.8
20260830190503 77 316 0.0 1.0 0.00 0.00 0.00 62 1017.9
20260830190016 77 316 0.0 2.0 0.00 0.00 0.00 61 1018.0
20260830185510 77 320 0.0 3.0 0.00 0.00 0.00 60 1018.1
20260830185007 78 351 0.0 3.0 0.00 0.00 0.00 59 1018.1
20260830184524 78 284 0.0 4.0 0.00 0.00 0.00 60 1018.1
20260830184011 78 286 2.0 4.0 0.00 0.00 0.00 59 1018.2
20260830183512 77 212 1.0 5.0 0.00 0.00 0.00 59 1018.2
20260830183027 77 289 2.0 5.0 0.00 0.00 0.00 60 1018.3
20260830182514 77 292 1.0 7.0 0.00 0.00 0.00 61 1018.4
20260830182013 77 284 3.0 7.0 0.00 0.00 0.00 60 1018.5
20260830181530 77 285 0.0 5.0 0.00 0.00 0.00 61 1018.5
20260830181016 77 335 2.0 5.0 0.00 0.00 0.00 60 1018.5
20260830180515 77 305 2.0 5.0 0.00 0.00 0.00 60 1018.5
20260830180031 77 293 1.0 4.0 0.00 0.00 0.00 60 1018.8
20260830175507 77 277 0.0 7.0 0.00 0.00 0.00 61 1018.8
20260830175007 77 290 3.0 7.0 0.00 0.00 0.00 60 1018.8
20260830174516 77 281 1.0 6.0 0.00 0.00 0.00 61 1018.8
20260830174010 77 319 0.0 6.0 0.00 0.00 0.00 60 1018.9
20260830173509 77 294 2.0 4.0 0.00 0.00 0.00 62 1019.0
20260830173022 77 282 0.0 3.0 0.00 0.00 0.00 63 1018.9
20260830172510 77 281 1.0 3.0 0.00 0.00 0.00 63 1019.1
20260830172012 77 275 0.0 3.0 0.00 0.00 0.00 64 1019.2
20260830171529 76 303 1.0 4.0 0.00 0.00 0.00 63 1019.3
20260830171014 77 296 1.0 6.0 0.00 0.00 0.00 62 1019.2
20260830170516 77 283 2.0 6.0 0.00 0.00 0.00 64 1019.2
20260830170031 76 293 1.0 7.0 0.00 0.00 0.00 64 1019.3
20260830165515 76 295 0.0 7.0 0.00 0.00 0.00 64 1019.4
20260830165020 76 302 2.0 7.0 0.00 0.00 0.00 63 1019.4
20260830164543 76 316 1.0 6.0 0.00 0.00 0.00 65 1019.4
20260830164006 75 354 0.0 7.0 0.00 0.00 0.00 66 1019.4
20260830163509 75 283 3.0 7.0 0.00 0.00 0.00 66 1019.4
20260830163023 75 294 3.0 5.0 0.00 0.00 0.00 68 1019.4
20260830162509 74 297 0.0 3.0 0.00 0.00 0.00 68 1019.3
20260830162012 74 274 0.0 2.0 0.00 0.00 0.00 68 1019.2
20260830161527 74 274 0.0 2.0 0.00 0.00 0.00 68 1019.3
20260830161011 74 285 0.0 2.0 0.00 0.00 0.00 68 1019.3
20260830160514 74 287 0.0 4.0 0.00 0.00 0.00 66 1019.2
20260830160030 74 290 0.0 4.0 0.00 0.00 0.00 67 1019.8
20260830155515 74 295 1.0 5.0 0.00 0.00 0.00 66 1019.9
20260830155017 74 284 1.0 5.0 0.00 0.00 0.00 66 1019.9
20260830154532 74 302 2.0 5.0 0.00 0.00 0.00 66 1020.0
20260830154015 75 297 1.0 5.0 0.00 0.00 0.00 66 1019.9
20260830153514 75 283 1.0 5.0 0.00 0.00 0.00 65 1019.8
20260830153044 75 297 2.0 5.0 0.00 0.00 0.00 65 1019.9
20260830152511 75 281 2.0 6.0 0.00 0.00 0.00 65 1019.9
20260830152009 75 287 2.0 6.0 0.00 0.00 0.00 64 1019.9
20260830151524 75 310 1.0 4.0 0.00 0.00 0.00 64 1019.9
20260830151010 75 349 1.0 3.0 0.00 0.00 0.00 67 1019.9
20260830150512 75 299 0.0 4.0 0.00 0.00 0.00 67 1019.8
20260830150027 74 279 0.0 4.0 0.00 0.00 0.00 67 1020.0
20260830145513 74 287 2.0 5.0 0.00 0.00 0.00 66 1020.0
20260830145001 75 294 1.0 6.0 0.00 0.00 0.00 64 1020.0
20260830144504 75 304 2.0 6.0 0.00 0.00 0.00 64 1020.0
20260830144002 75 287 1.0 4.0 0.00 0.00 0.00 64 1020.1
20260830143502 75 295 1.0 6.0 0.00 0.00 0.00 65 1020.0
20260830143004 74 290 3.0 6.0 0.00 0.00 0.00 64 1019.9
20260830142503 74 300 0.0 6.0 0.00 0.00 0.00 65 1019.8
20260830142002 73 288 3.0 7.0 0.00 0.00 0.00 65 1019.8
20260830141506 73 303 4.0 7.0 0.00 0.00 0.00 65 1019.8
20260830141002 73 290 2.0 8.0 0.00 0.00 0.00 65 1019.9
20260830140503 73 287 4.0 8.0 0.00 0.00 0.00 65 1019.9
20260830140004 73 299 3.0 6.0 0.00 0.00 0.00 65 1020.0
20260830135503 73 301 2.0 7.0 0.00 0.00 0.00 65 1020.0
20260830135003 72 296 3.0 7.0 0.00 0.00 0.00 66 1020.1
20260830134511 72 274 1.0 4.0 0.00 0.00 0.00 68 1020.1
20260830134003 71 276 1.0 4.0 0.00 0.00 0.00 69 1020.1
20260830133504 70 297 1.0 5.0 0.00 0.00 0.00 70 1020.0
20260830133004 70 300 0.0 5.0 0.00 0.00 0.00 73 1020.0
20260830132503 69 298 0.0 4.0 0.00 0.00 0.00 75 1020.1
20260830132003 68 283 1.0 4.0 0.00 0.00 0.00 72 1020.2
20260830131509 68 228 1.0 4.0 0.00 0.00 0.00 75 1020.1
20260830131003 67 190 1.0 3.0 0.00 0.00 0.00 77 1020.1
20260830130506 67 165 1.0 3.0 0.00 0.00 0.00 78 1020.2
20260830130005 66 126 1.0 3.0 0.00 0.00 0.00 79 1020.3
20260830125503 66 91 1.0 2.0 0.00 0.00 0.00 79 1020.3
20260830125004 65 130 0.0 2.0 0.00 0.00 0.00 79 1020.4
20260830124505 65 130 0.0 2.0 0.00 0.00 0.00 79 1020.5
20260830124003 64 165 0.0 2.0 0.00 0.00 0.00 79 1020.6
20260830123504 64 149 0.0 2.0 0.00 0.00 0.00 81 1020.5
20260830123006 63 82 0.0 2.0 0.00 0.00 0.00 82 1020.4
20260830122503 63 82 0.0 2.0 0.00 0.00 0.00 82 1020.5
20260830122003 62 82 0.0 3.0 0.00 0.00 0.00 83 1020.5
20260830121504 62 79 0.0 3.0 0.00 0.00 0.00 84 1020.6
20260830121002 61 137 0.0 2.0 0.00 0.00 0.00 87 1020.6
20260830120502 59 181 0.0 3.0 0.00 0.00 0.00 88 1020.6
20260830120006 58 185 0.0 3.0 0.00 0.00 0.00 90 1020.7
20260830115504 58 284 0.0 2.0 0.00 0.00 0.00 90 1020.7
20260830115002 57 284 0.0 0.0 0.00 0.00 0.00 91 1020.8
20260830114504 57 284 0.0 0.0 0.00 0.00 0.00 90 1020.7
20260830114006 57 284 0.0 0.0 0.00 0.00 0.00 91 1020.6
20260830113503 56 284 0.0 0.0 0.00 0.00 0.00 91 1020.6
20260830113006 56 284 0.0 0.0 0.00 0.00 0.00 91 1020.6
20260830112504 56 284 0.0 0.0 0.00 0.00 0.00 91 1020.6
20260830112006 56 284 0.0 0.0 0.00 0.00 0.00 92 1020.6
20260830111508 56 284 0.0 0.0 0.00 0.00 0.00 91 1020.7
20260830111003 56 284 0.0 0.0 0.00 0.00 0.00 91 1020.6
20260830110504 55 284 0.0 0.0 0.00 0.00 0.00 91 1020.6
20260830110008 55 284 0.0 0.0 0.00 0.00 0.00 91 1020.5
20260830105505 55 284 0.0 0.0 0.00 0.00 0.00 91 1020.5
20260830105003 55 284 0.0 0.0 0.00 0.00 0.00 91 1020.5
20260830104507 55 284 0.0 0.0 0.00 0.00 0.00 91 1020.3
20260830104003 55 284 0.0 0.0 0.00 0.00 0.00 91 1020.4
20260830103503 55 284 0.0 0.0 0.00 0.00 0.00 91 1020.4
20260830103007 55 284 0.0 0.0 0.00 0.00 0.00 91 1020.5
20260830102503 55 284 0.0 0.0 0.00 0.00 0.00 91 1020.5
20260830102003 55 284 0.0 0.0 0.00 0.00 0.00 91 1020.5
20260830101508 55 284 0.0 0.0 0.00 0.00 0.00 91 1020.5
20260830101009 55 284 0.0 0.0 0.00 0.00 0.00 91 1020.6
20260830100504 55 284 0.0 0.0 0.00 0.00 0.00 91 1020.6
20260830100015 55 284 0.0 0.0 0.00 0.00 0.00 91 1020.6
20260830095504 55 284 0.0 0.0 0.00 0.00 0.00 91 1020.6
20260830095003 55 284 0.0 0.0 0.00 0.00 0.00 91 1020.6
20260830094514 55 284 0.0 0.0 0.00 0.00 0.00 91 1020.6
20260830094007 55 284 0.0 0.0 0.00 0.00 0.00 91 1020.6
20260830093509 55 284 0.0 0.0 0.00 0.00 0.00 91 1020.7
20260830093012 55 284 0.0 0.0 0.00 0.00 0.00 91 1020.6
20260830092506 54 284 0.0 0.0 0.00 0.00 0.00 91 1020.6
20260830092008 54 284 0.0 0.0 0.00 0.00 0.00 91 1020.7
20260830091513 54 284 0.0 0.0 0.00 0.00 0.00 91 1020.7
20260830091003 54 284 0.0 0.0 0.00 0.00 0.00 91 1020.8
20260830090504 54 284 0.0 0.0 0.00 0.00 0.00 91 1020.8
20260830090013 54 284 0.0 0.0 0.00 0.00 0.00 91 1020.9
20260830085503 54 284 0.0 0.0 0.00 0.00 0.00 91 1021.0
20260830085006 54 284 0.0 0.0 0.00 0.00 0.00 91 1021.1
20260830084515 54 284 0.0 0.0 0.00 0.00 0.00 91 1021.1
20260830084009 54 284 0.0 0.0 0.00 0.00 0.00 91 1021.1
20260830083508 53 284 0.0 0.0 0.00 0.00 0.00 91 1021.1
20260830083015 53 284 0.0 0.0 0.00 0.00 0.00 91 1021.1
20260830082507 53 284 0.0 0.0 0.00 0.00 0.00 90 1021.1
20260830082007 53 284 0.0 0.0 0.00 0.00 0.00 91 1021.1
20260830081517 54 284 0.0 0.0 0.00 0.00 0.00 91 1021.0
20260830081008 54 284 0.0 0.0 0.00 0.00 0.00 91 1020.9
20260830080508 54 284 0.0 0.0 0.00 0.00 0.00 91 1020.9
20260830080016 53 284 0.0 0.0 0.00 0.00 0.00 91 1020.9
20260830075502 53 284 0.0 0.0 0.00 0.00 0.00 91 1021.0
20260830075004 53 284 0.0 0.0 0.00 0.00 0.00 91 1021.0
20260830074521 53 284 0.0 0.0 0.00 0.00 0.00 91 1021.0
20260830074010 53 284 0.0 0.0 0.00 0.00 0.00 91 1020.9
20260830073507 53 284 0.0 0.0 0.00 0.00 0.00 91 1020.8
20260830073019 53 284 0.0 0.0 0.00 0.00 0.00 91 1020.8
20260830072510 53 284 0.0 0.0 0.00 0.00 0.00 91 1020.7
20260830072008 53 284 0.0 0.0 0.00 0.00 0.00 91 1020.6
20260830071518 53 284 0.0 0.0 0.00 0.00 0.00 90 1020.6
20260830071005 54 284 0.0 0.0 0.00 0.00 0.00 91 1020.6
20260830070510 54 284 0.0 0.0 0.00 0.00 0.00 91 1020.6
20260830070016 54 284 0.0 0.0 0.00 0.00 0.00 91 1020.7
20260830065508 54 284 0.0 0.0 0.00 0.00 0.00 91 1020.7
20260830065008 54 284 0.0 0.0 0.00 0.00 0.00 91 1020.8
20260830064519 54 284 0.0 0.0 0.00 0.00 0.00 91 1020.8
20260830064004 54 284 0.0 0.0 0.00 0.00 0.00 91 1020.7
20260830063508 54 284 0.0 0.0 0.00 0.00 0.00 90 1020.8
20260830063012 54 284 0.0 0.0 0.00 0.00 0.00 90 1020.9
20260830062506 54 284 0.0 0.0 0.00 0.00 0.00 91 1021.0
20260830062007 54 284 0.0 0.0 0.00 0.00 0.00 91 1021.0
20260830061526 54 284 0.0 0.0 0.00 0.00 0.00 91 1021.1
20260830061009 54 284 0.0 0.0 0.00 0.00 0.00 91 1021.1
20260830060509 54 284 0.0 0.0 0.00 0.00 0.00 90 1021.2
20260830060020 54 284 0.0 0.0 0.00 0.00 0.00 90 1021.3
20260830055510 54 284 0.0 0.0 0.00 0.00 0.00 90 1021.3
20260830055002 54 284 0.0 0.0 0.00 0.00 0.00 90 1021.3
20260830054506 54 284 0.0 0.0 0.00 0.00 0.00 90 1021.4
20260830054002 54 284 0.0 0.0 0.00 0.00 0.00 90 1021.4
20260830053506 54 284 0.0 0.0 0.00 0.00 0.00 90 1021.5
20260830053013 54 284 0.0 0.0 0.00 0.00 0.00 90 1021.4
20260830052503 54 284 0.0 0.0 0.00 0.00 0.00 90 1021.4
20260830052009 54 284 0.0 0.0 0.00 0.00 0.00 89 1021.4
20260830051514 54 284 0.0 0.0 0.00 0.00 0.00 89 1021.4
20260830051007 54 284 0.0 0.0 0.00 0.00 0.00 89 1021.4
20260830050502 54 284 0.0 0.0 0.00 0.00 0.00 89 1021.4
20260830050003 54 284 0.0 0.0 0.00 0.00 0.00 89 1021.3
20260830045505 54 284 0.0 0.0 0.00 0.00 0.00 89 1021.4
20260830045001 54 284 0.0 0.0 0.00 0.00 0.00 89 1021.4
20260830044503 55 284 0.0 0.0 0.00 0.00 0.00 88 1021.4
20260830044002 55 284 0.0 0.0 0.00 0.00 0.00 88 1021.5
20260830043502 55 284 0.0 0.0 0.00 0.00 0.00 88 1021.5
20260830043008 55 284 0.0 0.0 0.00 0.00 0.00 88 1021.5
20260830042510 55 284 0.0 0.0 0.00 0.00 0.00 88 1021.5
20260830042004 55 284 0.0 0.0 0.00 0.00 0.00 88 1021.6
20260830041515 55 284 0.0 0.0 0.00 0.00 0.00 87 1021.5
20260830041007 55 284 0.0 0.0 0.00 0.00 0.00 88 1021.6
20260830040507 55 284 0.0 0.0 0.00 0.00 0.00 88 1021.6
20260830040022 55 284 0.0 0.0 0.00 0.00 0.00 87 1021.5
20260830035510 56 284 0.0 0.0 0.00 0.00 0.00 87 1021.5
20260830035012 56 284 0.0 0.0 0.00 0.00 0.00 87 1021.6
20260830034504 56 284 0.0 0.0 0.00 0.00 0.00 86 1021.5
20260830034003 56 284 0.0 0.0 0.00 0.00 0.00 85 1021.5
20260830033503 56 284 0.0 0.0 0.00 0.00 0.00 85 1021.5
20260830033003 56 284 0.0 0.0 0.00 0.00 0.00 85 1021.6
20260830032502 57 284 0.0 0.0 0.00 0.00 0.00 84 1021.6
20260830032005 57 284 0.0 0.0 0.00 0.00 0.00 84 1021.7
20260830031509 57 284 0.0 0.0 0.00 0.00 0.00 83 1021.7
20260830031006 57 284 0.0 0.0 0.00 0.00 0.00 83 1021.6
20260830030506 57 284 0.0 0.0 0.00 0.00 0.00 83 1021.6
20260830030013 58 284 0.0 0.0 0.00 0.00 0.00 83 1021.7
20260830025508 58 284 0.0 0.0 0.00 0.00 0.00 82 1021.7
20260830025008 58 284 0.0 0.0 0.00 0.00 0.00 81 1021.7
20260830024523 58 284 0.0 0.0 0.00 0.00 0.00 81 1021.7
20260830024013 58 284 0.0 0.0 0.00 0.00 0.00 80 1021.8
20260830023515 59 284 0.0 0.0 0.00 0.00 0.00 80 1021.7
20260830023007 59 284 0.0 0.0 0.00 0.00 0.00 80 1021.7
20260830022506 59 284 0.0 0.0 0.00 0.00 0.00 80 1021.8
20260830022001 59 284 0.0 0.0 0.00 0.00 0.00 79 1021.7
20260830021508 59 284 0.0 0.0 0.00 0.00 0.00 79 1021.6
20260830021003 59 284 0.0 0.0 0.00 0.00 0.00 78 1021.7
20260830020503 60 284 0.0 0.0 0.00 0.00 0.00 78 1021.6
20260830020024 60 284 0.0 0.0 0.00 0.00 0.00 78 1021.6
20260830015506 60 284 0.0 0.0 0.00 0.00 0.00 78 1021.6
20260830015008 60 284 0.0 0.0 0.00 0.00 0.00 78 1021.6
20260830014518 60 284 0.0 0.0 0.00 0.00 0.00 77 1021.6
20260830014008 61 284 0.0 0.0 0.00 0.00 0.00 76 1021.7
20260830013514 61 284 0.0 0.0 0.00 0.00 0.00 75 1021.7
20260830013020 61 284 0.0 0.0 0.00 0.00 0.00 74 1021.8
20260830012510 62 284 0.0 0.0 0.00 0.00 0.00 73 1021.8
20260830012013 62 284 0.0 0.0 0.00 0.00 0.00 73 1021.8
20260830011508 62 284 0.0 0.0 0.00 0.00 0.00 73 1021.6
20260830011004 62 284 0.0 0.0 0.00 0.00 0.00 72 1021.7
20260830010503 63 284 0.0 0.0 0.00 0.00 0.00 72 1021.7